Regional Weather Roundup
Issued by NWS Wakefield, VA

Home | Current Version | Previous Version | Graphics & Text | Print | Product List | Glossary On
Versions: 1 2 3 4 5 6 7 8 9 10 11 12 13 14 15 16 17 18 19 20 21 22 23 24 25 26 27 28 29 30 31 32 33 34 35 36 37 38 39 40 41 42 43 44 45 46 47 48
459
ASUS41 KAKQ 080215
RWRAKQ

REGIONAL WEATHER ROUNDUP
NATIONAL WEATHER SERVICE WAKEFIELD VA
900 PM EST SUN FEB 07 2016

Note: "fair" indicates few or no clouds below 12,000 feet with no
significant weather and/or obstructions to visibility. * = Denotes
station may not report precipitation (e.g., rain,snow,etc.),
thunder or fog.

VAZ042-051-052>054-056-080300-
NORTHERN VIRGINIA

CITY           SKY/WX    TMP DP  RH WIND       PRES   REMARKS
WASH NATIONAL  CLOUDY    41  23  48 N13       29.93F
DULLES         MOCLDY    36  23  59 N6        29.93F
FORT BELVOIR   FAIR      39  19  45 NW5       29.92F
QUANTICO       FAIR      42  19  39 N9        29.93F
FREDERICKSBRG* FAIR      38  21  50 N3        29.91S
STAFFORD*      FAIR      35  20  55 N6        29.95F
WARRENTON      FAIR      30  26  86 CALM      29.92F
CULPEPER*      FAIR      31  24  74 N3        29.93F
MANASSAS*      CLEAR     36  25  64 N9        29.93F
LEESBURG*      FAIR      39  27  60 N6        29.94F
WINCHESTER     FAIR      30  25  80 CALM      29.92F
FRONT ROYAL*   FAIR      30  23  74 CALM      29.91F
LURAY*         FAIR      30  23  74 CALM      29.92S
$$

VAZ048-049-060>072-079>083-080300-
CENTRAL AND SOUTH CENTRAL VIRGINIA

CITY           SKY/WX    TMP DP  RH WIND       PRES   REMARKS
RICHMOND       CLOUDY    39  22  50 N13       29.87F
CHESTERFIELD*  FAIR     N/A N/A N/A N8        29.88F
PETERSBURG*    FAIR      42  17  35 N9        29.86F
HANOVER        FAIR      39  19  44 VRB6      29.90F
TAPPAHANNOCK*  FAIR      41  24  51 N8        29.89F
QUINTON*       FAIR      40  23  50 N7        29.86F
CHARLOTTSVILLE FAIR      37  22  54 NW5       29.91S
GORDONSVILLE*  FAIR      38  23  55 N3        29.91F
ORANGE*        FAIR      36  25  64 NW3       29.93F
LOUISA*        FAIR      37  21  52 N5        29.90S
BUMPASS*       FAIR      39  21  48 CALM      29.90F
FARMVILLE*     FAIR      39  23  52 N6        29.88F
CREWE*         FAIR      38  22  52 N5        29.87F
FORT PICKETT*  FAIR      38  20  47 N8        29.86F
CHASE CITY*    FAIR      37  21  52 NW5       29.88S
CLARKSVILLE*   FAIR      37  25  60 N8        29.87S
SOUTH HILL*    FAIR      39  20  46 N14       29.89F
LAWRENCEVILLE* FAIR      40  21  47 N10G17    29.83F
EMPORIA*       CLOUDY    41  23  48 NW10G21   29.84F
$$

VAZ088>098-080300-
SOUTHEAST VIRGINIA

CITY           SKY/WX    TMP DP  RH WIND       PRES   REMARKS
NORFOLK        LGT RAIN  40  32  73 N21G33    29.77F
VIRGINIA BEACH LGT RAIN  44  35  70 N20G31    29.74F
NORFOLK NAVAL  LGTSLEET  40  33  76 N22G36    29.79F
WEST POINT*    MOCLDY    41  25  53 N8        29.86F
SALUDA*        FAIR      39  30  70 N10       29.83F
NEWPORT NEWS   LGT RAIN  40  29  64 N14G22    29.80F
LANGLEY AFB    MOCLDY    40  31  72 N15G23    29.78F
FORT EUSTIS    FAIR      42  22  44 N13G21    29.79F
WILLIAMSBURG*  FAIR      43  30  61 N9G16     29.83F
HR EXEC AP*    CLOUDY    39  30  70 N9        29.80S
FRANKLIN*      DRIZZLE   37  32  83 N6        29.80F
US460-WAKEFLD  CLOUDY    42  24  49 N12G18    29.82F
$$

VAZ020-022-025-037-045-080300-
WEST CENTRAL AND SOUTHWEST VIRGINIA

CITY           SKY/WX    TMP DP  RH WIND       PRES   REMARKS
STAUNTON*      FAIR      32  27  83 CALM      29.93S
WAYNESBORO*    FAIR      30  23  75 CALM      29.90S
HOT SPRINGS VA FAIR      34  22  61 CALM      29.82F
LYNCHBURG      FAIR      30  25  81 NW3       29.91F
DANVILLE       FAIR      39  24  55 N3        29.90F
SOUTH BOSTON*  FAIR      37  23  57 NW7       29.89F
MARTINSVILLE   FAIR      29  23  79 CALM      29.93S
ROANOKE        FAIR      37  24  59 CALM      29.92S
BLACKSBURG     FAIR      33  24  70 CALM      29.91F
DUBLIN*        FAIR      37  25  60 W3        29.90F
MARION*        FAIR      32  23  68 CALM      29.92S
HILLSVILLE*    FAIR      37  22  55 NW9       29.86F
RICHLANDS*     FAIR      37   6  27 CALM      29.89F
WISE*          FAIR      36  18  48 SW3       29.90F
ABINGDON*      FAIR      37  23  57 CALM      29.91F
$$

MDZ021>025-VAZ099-100-080300-
SOUTHERN MARYLAND AND THE DELMARVA PENINSULA

CITY           SKY/WX    TMP DP  RH WIND       PRES   REMARKS
PATUXENT RIVER CLOUDY    40  28  62 N14       29.88F
BAY BRIDGE APT   N/A     39  28  65 CALM      29.91F
LEONARDTOWN    CLOUDY    39  27  60 CALM      29.90F
DOVER          CLOUDY    39  30  70 N12       29.89F
GEORGETOWN     CLOUDY    40  31  70 N13       29.86F
EASTON         CLOUDY    39  27  60 NE9       29.93F
CAMBRIDGE      CLOUDY    39  28  65 N9        29.88F
SALISBURY      CLOUDY    40  31  70 N10       29.84F
OCEAN CITY     CLOUDY    42  35  76 N15G23    29.81F
WALLOPS ISLAND CLOUDY    43  33  68 N16G28    29.79F
ACCOMACK*      LGT RAIN  37  32  81 N10G18    29.79F
$$

NCZ012>017-030>032-080300-
NORTH CENTRAL AND EASTERN NORTH CAROLINA

CITY           SKY/WX    TMP DP  RH WIND       PRES   REMARKS
ROANOKE RAPIDS FAIR      41  25  52 N10       29.81F
RALEIGH        MOCLDY    42  22  44 N7        29.86S
ELIZABETH CITY LGT RAIN  41  37  86 N24G36    29.69F
AHOSKIE*       LGT RAIN  37  31  81 N10G17    29.79F
EDENTON*       LGT RAIN  40  35  83 N17G25    29.72F
CURRITUCK*     LGT RAIN  41  39  93 N21G31    29.71S
KILL DEVIL HLS LGT RAIN  44  42  92 N20G35    29.57S
MANTEO         RAIN      43  43  98 N30G46    29.58S
CAPE HATTERAS  RAIN      45  43  93 N23G41    29.44F FOG
TARBORO*       CLOUDY    40  29  63 N9        29.80F
GOLDSBORO      CLOUDY    41  27  56 NW14      29.77S
WASHINGTON     LGT RAIN  36  32  85 N15G24    29.72F
GREENVILLE     LGT RAIN  37  34  87 N17G23    29.79F
NEW BERN       RAIN      37  32  82 N18G30    29.69F
WILMINGTON     LGT RAIN  38  32  79 NW21      29.74R
$$

VAZ048-080300-
ELSEWHERE

CITY           SKY/WX    TMP DP  RH WIND       PRES   REMARKS
HARRISBURG PA  CLOUDY    32  23  69 CALM      29.95F
BALTIMORE      MOCLDY    39  22  50 N6        29.92F
ANNAPOLIS      CLOUDY    40  26  57 N8        29.91F
ANDREWS AFB    FAIR      37  23  56 N10       29.89F
PHILADELPHIA   CLOUDY    40  23  50 NE8       29.95F
HENDERSON NC   PTCLDY    39  20  47 N8        29.86S
GREENSBORO     CLOUDY    40  21  46 CALM      29.88F
ROCKY MOUNT    MOCLDY    41  24  51 N13       29.81S
$$

VAZ100-080300-
MARINE

STATION/POSITION TIME  TEMP    WIND        PRES    WAVE   SWELL
                       AIR SEA DIR/SP/G            HT/PER HT/PER
                 (UTC) (F)     (DEG/KT/KT) (MB)    (FT/S) (FT/S)
BRANDYWINE LGT   0100   40                 1012.4F
CAPE MAY NJ      0100   41 42              1011.9F
LEWES DE         0100   41 42              1012.1F
15NM E FENWICK I 0150   45 45              1009.0F   9/ 7
OCEAN-CITY-INLET 0100   43 41              1010.0F
WACHAPREAGUE VA  0100   42 42              1008.8F
THOMAS POINT MD  0100   40 39  360/ 11/ 11 1014.4F
GOOSES REEF MD   0200   40 40   20/ 14/ 16 1013.3F   2/ 3
COVE POINT MD    0100   39                 1013.2F
SOLOMONS ISLAND  0100   41 41                N/A
BISHOPS HEAD MD  0100   41 40              1010.7F
POTOMAC MD       0200   41 40   10/ 16/ 21 1010.2F   1/ 2
CAMBRIDGE MD     0100   41 40              1011.9F
LEWISETTA VA     0100   40 42              1011.7F
RAPPAHANNOCK LGT 0100                      1009.5F
STINGRAY PT      0100   41 42   10/ 19/ 23 1010.1F   3/ 3
YORK RVR RNG VA  0100   42                 1008.5F
YORKTOWN VA      0100   42 43              1009.9F
JAMESTOWN VA     0200   41 44  350/  8/ 14   N/A     0
DOMINION TERM VA 0100   41                 1009.1F
KIPTOPEKE VA     0100      42                N/A
CHES BAY BRIDGE  0100   41 43              1007.5F
CAPE HENRY VA    0100   42                   N/A
CHESAPEAKE LGHT  0100   44      20/ 35/ 40 1006.0F
WILLOUBY STN VA  0100   41                 1027.5S
CAPE HENRY BUOY  0128      46                N/A    11/ 7   2/11
1ST LANDING BUOY 0200      44                N/A     6/ 5
CAPE CHARLES BUO 0126      44                N/A     9/ 9   7/ 9
OFFSHORE WE BUOY 0121      49                N/A    12/ 9   7/ 9
64NM E OF VA BCH 0150   51 54   20/ 39/ 47  999.2F  17/10  10/10
DUCK PIER NC     0100   45 53              1002.0F
44100 DUCK FRF   0124      46                N/A    16/ 9   5/11
44056 DUCK FRF   0111      45                N/A    13/ 9   5/11
OREGON INLET NC  0100   45 45               999.6F
HATTERAS NC      0100   45 47               996.5F
DIAMOND SHLS NC  0150   52 71  360/ 45/ 54  991.8F  19/13   8/13
$$




USA.gov is the U.S. government's official web portal to all federal, state and local government web resources and services.